When you browse on this site, cookies collect data to enhance your experience and personalize the content and advertising you see.
Visit our Privacy Policy to learn more. By continuing to use the site, you agree to this use of cookies and data.
  • In Spain
  • List of Countries
  • For 7 days
  • Water Temperature
  • Satellite Maps
  • Weather Map
  • Weather Widgets
  • user-avatar
    Login

    Hourly Weather Atoyatempan

    Today, 18 February, Monday

    Time Temperature Precipitation Wind Pressure Humidity
    00:00 +16°C° 0 mm 1 mps 606 mmHg 46%
    01:00 +16°C° 0 mm 1 mps 606 mmHg 48%
    02:00 +15°C° 0 mm 1 mps 606 mmHg 50%
    03:00 +15°C° 0 mm 1 mps 606 mmHg 53%
    04:00 +14°C° 0 mm 1 mps 605 mmHg 56%
    05:00 +14°C° 0 mm 1 mps 605 mmHg 59%
    06:00 +16°C° 0 mm 1 mps 607 mmHg 52%
    07:00 +17°C° 0 mm 0 mps 608 mmHg 44%
    08:00 +19°C° 0 mm 0 mps 609 mmHg 36%
    09:00 +23°C° 0 mm 1 mps 610 mmHg 32%
    10:00 +25°C° 0 mm 2 mps 610 mmHg 27%
    11:00 +27°C° 0 mm 3 mps 611 mmHg 22%
    12:00 +28°C° 0 mm 4 mps 611 mmHg 22%
    13:00 +29°C° 0 mm 5 mps 610 mmHg 21%
    14:00 +30°C° 0 mm 5 mps 610 mmHg 21%
    15:00 +29°C° 0 mm 5 mps 610 mmHg 23%
    16:00 +28°C° 0 mm 5 mps 609 mmHg 25%
    17:00 +27°C° 0 mm 5 mps 609 mmHg 27%
    18:00 +25°C° 0.1 mm 4 mps 609 mmHg 32%
    19:00 +23°C° 0.1 mm 2 mps 609 mmHg 37%
    20:00 +21°C° 0.1 mm 1 mps 609 mmHg 43%
    21:00 +19°C° 0 mm 2 mps 608 mmHg 52%
    22:00 +18°C° 0 mm 2 mps 608 mmHg 61%
    23:00 +18°C° 0 mm 2 mps 608 mmHg 71%

    Tomorrow, 19 February, Tuesday

    Time Temperature Precipitation Wind Pressure Humidity
    00:00 +17°C° 0 mm 2 mps 607 mmHg 75%
    01:00 +16°C° 0 mm 2 mps 607 mmHg 79%
    02:00 +16°C° 0 mm 1 mps 606 mmHg 83%
    03:00 +15°C° 0 mm 1 mps 606 mmHg 84%
    04:00 +14°C° 0 mm 1 mps 606 mmHg 85%
    05:00 +13°C° 0 mm 0 mps 606 mmHg 86%
    06:00 +14°C° 0 mm 0 mps 607 mmHg 76%
    07:00 +18°C° 0 mm 1 mps 608 mmHg 67%
    08:00 +19°C° 0 mm 1 mps 608 mmHg 57%
    09:00 +20°C° 0 mm 2 mps 609 mmHg 48%
    10:00 +22°C° 0 mm 3 mps 609 mmHg 40%
    11:00 +25°C° 0 mm 4 mps 610 mmHg 32%
    12:00 +25°C° 0 mm 5 mps 609 mmHg 28%
    13:00 +26°C° 0 mm 6 mps 609 mmHg 24%
    14:00 +27°C° 0 mm 6 mps 608 mmHg 20%
    15:00 +26°C° 0 mm 6 mps 608 mmHg 21%
    16:00 +25°C° 0 mm 5 mps 607 mmHg 22%
    17:00 +23°C° 0 mm 5 mps 607 mmHg 23%
    18:00 +21°C° 0 mm 3 mps 607 mmHg 26%
    19:00 +19°C° 0 mm 2 mps 606 mmHg 30%
    20:00 +18°C° 0 mm 1 mps 606 mmHg 33%
    21:00 +18°C° 0 mm 1 mps 606 mmHg 35%
    22:00 +16°C° 0 mm 1 mps 606 mmHg 37%
    23:00 +14°C° 0 mm 0 mps 605 mmHg 39%

    Day after tomorrow, 20 February, Wednesday

    Time Temperature Precipitation Wind Pressure Humidity
    00:00 +14°C° 0 mm 0 mps 605 mmHg 42%
    01:00 +13°C° 0 mm 0 mps 604 mmHg 44%
    02:00 +12°C° 0 mm 0 mps 603 mmHg 46%
    03:00 +12°C° 0 mm 0 mps 603 mmHg 48%
    04:00 +11°C° 0 mm 0 mps 603 mmHg 50%
    05:00 +12°C° 0 mm 1 mps 603 mmHg 52%
    06:00 +14°C° 0 mm 1 mps 604 mmHg 46%
    07:00 +15°C° 0 mm 0 mps 605 mmHg 40%
    08:00 +17°C° 0 mm 0 mps 607 mmHg 34%
    09:00 +21°C° 0 mm 1 mps 607 mmHg 30%
    10:00 +21°C° 0 mm 2 mps 608 mmHg 26%
    11:00 +24°C° 0 mm 3 mps 608 mmHg 23%
    12:00 +25°C° 0 mm 4 mps 607 mmHg 21%
    13:00 +26°C° 0 mm 5 mps 607 mmHg 19%
    14:00 +26°C° 0 mm 5 mps 606 mmHg 17%
    15:00 +25°C° 0 mm 5 mps 606 mmHg 19%
    16:00 +25°C° 0 mm 5 mps 606 mmHg 20%
    17:00 +23°C° 0 mm 4 mps 606 mmHg 22%
    18:00 +21°C° 0 mm 3 mps 606 mmHg 26%
    19:00 +19°C° 0 mm 2 mps 606 mmHg 29%
    20:00 +18°C° 0 mm 1 mps 606 mmHg 33%
    21:00 +16°C° 0 mm 1 mps 606 mmHg 33%
    22:00 +16°C° 0 mm 1 mps 606 mmHg 33%
    23:00 +15°C° 0 mm 1 mps 606 mmHg 33%

    21 February, Thursday

    Time Temperature Precipitation Wind Pressure Humidity
    00:00 +15°C° 0 mm 1 mps 605 mmHg 36%
    01:00 +14°C° 0 mm 1 mps 604 mmHg 39%
    02:00 +13°C° 0 mm 1 mps 604 mmHg 42%
    03:00 +11°C° 0 mm 0 mps 604 mmHg 45%
    04:00 +11°C° 0 mm 0 mps 604 mmHg 48%
    05:00 +10°C° 0 mm 0 mps 604 mmHg 51%
    06:00 +12°C° 0 mm 0 mps 605 mmHg 47%
    07:00 +14°C° 0 mm 0 mps 606 mmHg 43%
    08:00 +16°C° 0 mm 0 mps 607 mmHg 39%
    09:00 +20°C° 0 mm 1 mps 608 mmHg 32%
    10:00 +21°C° 0 mm 2 mps 608 mmHg 26%
    11:00 +24°C° 0 mm 3 mps 608 mmHg 20%
    12:00 +25°C° 0 mm 4 mps 608 mmHg 18%
    13:00 +26°C° 0 mm 5 mps 607 mmHg 17%
    14:00 +27°C° 0 mm 6 mps 607 mmHg 16%
    15:00 +26°C° 0 mm 5 mps 607 mmHg 17%
    16:00 +25°C° 0 mm 5 mps 607 mmHg 18%
    17:00 +23°C° 0 mm 5 mps 606 mmHg 19%
    18:00 +21°C° 0 mm 3 mps 606 mmHg 22%
    19:00 +19°C° 0 mm 2 mps 606 mmHg 25%
    20:00 +18°C° 0 mm 1 mps 606 mmHg 29%
    21:00 +16°C° 0 mm 1 mps 606 mmHg 30%
    22:00 +14°C° 0 mm 0 mps 606 mmHg 32%
    23:00 +14°C° 0 mm 0 mps 605 mmHg 33%

    22 February, Friday

    Time Temperature Precipitation Wind Pressure Humidity
    00:00 +13°C° 0 mm 0 mps 605 mmHg 34%
    01:00 +12°C° 0 mm 0 mps 605 mmHg 35%
    02:00 +12°C° 0 mm 0 mps 604 mmHg 36%
    03:00 +13°C° 0 mm 1 mps 604 mmHg 37%
    04:00 +12°C° 0 mm 1 mps 604 mmHg 38%
    05:00 +12°C° 0 mm 1 mps 604 mmHg 40%
    06:00 +14°C° 0 mm 1 mps 606 mmHg 35%
    07:00 +16°C° 0 mm 0 mps 607 mmHg 30%
    08:00 +18°C° 0 mm 0 mps 609 mmHg 25%
    09:00 +22°C° 0 mm 1 mps 609 mmHg 22%
    10:00 +23°C° 0 mm 2 mps 610 mmHg 19%
    11:00 +25°C° 0 mm 3 mps 610 mmHg 16%
    12:00 +26°C° 0 mm 4 mps 610 mmHg 15%
    13:00 +27°C° 0 mm 4 mps 609 mmHg 15%
    14:00 +28°C° 0 mm 5 mps 609 mmHg 15%
    15:00 +27°C° 0 mm 5 mps 608 mmHg 17%
    16:00 +26°C° 0 mm 5 mps 608 mmHg 19%
    17:00 +25°C° 0 mm 5 mps 608 mmHg 21%
    18:00 +22°C° 0 mm 3 mps 608 mmHg 26%
    19:00 +20°C° 0 mm 2 mps 608 mmHg 30%
    20:00 +16°C° 0 mm 0 mps 607 mmHg 35%
    21:00 +18°C° 0 mm 1 mps 607 mmHg 35%
    22:00 +18°C° 0 mm 1 mps 607 mmHg 36%
    23:00 +16°C° 0 mm 1 mps 607 mmHg 37%

    23 February, Saturday

    Time Temperature Precipitation Wind Pressure Humidity
    00:00 +16°C° 0 mm 1 mps 606 mmHg 40%
    01:00 +15°C° 0 mm 1 mps 606 mmHg 43%
    02:00 +14°C° 0 mm 1 mps 605 mmHg 45%
    03:00 +13°C° 0 mm 0 mps 605 mmHg 48%
    04:00 +12°C° 0 mm 0 mps 605 mmHg 51%
    05:00 +12°C° 0 mm 0 mps 605 mmHg 53%
    06:00 +14°C° 0 mm 0 mps 607 mmHg 48%
    07:00 +16°C° 0 mm 0 mps 608 mmHg 42%
    08:00 +18°C° 0 mm 0 mps 609 mmHg 37%
    09:00 +22°C° 0 mm 1 mps 609 mmHg 33%
    10:00 +23°C° 0 mm 2 mps 610 mmHg 29%
    11:00 +25°C° 0 mm 2 mps 610 mmHg 25%
    12:00 +26°C° 0 mm 3 mps 610 mmHg 23%
    13:00 +27°C° 0 mm 4 mps 609 mmHg 22%
    14:00 +28°C° 0 mm 5 mps 609 mmHg 21%
    15:00 +27°C° 0 mm 5 mps 609 mmHg 23%
    16:00 +26°C° 0 mm 5 mps 608 mmHg 24%
    17:00 +26°C° 0 mm 5 mps 608 mmHg 26%
    18:00 +23°C° 0 mm 4 mps 608 mmHg 30%
    19:00 +21°C° 0 mm 2 mps 608 mmHg 33%
    20:00 +18°C° 0 mm 0 mps 608 mmHg 37%
    21:00 +19°C° 0 mm 1 mps 608 mmHg 38%
    22:00 +19°C° 0 mm 1 mps 608 mmHg 39%
    23:00 +18°C° 0 mm 1 mps 608 mmHg 40%
    Show more